LiveATC.Net - Listen to live air traffic control over the Internet!


ICAO: KGYH  IATA: GYH   Airport: Donaldson Field Airport
City: Greenville   State/Province: South Carolina
Country: United States   Continent: North America
KGYH METAR Weather: KGYH 040235Z AUTO 20003KT 10SM CLR 23/21 A2996 RMK AO2
KGYH Flight Activity (FlightAware)
KGYH Airport Info   (iFlightPlanner)
KGYH VFR Sectional Chart   (iFlightPlanner) 
KGYH IFR Low Chart   (iFlightPlanner) 

KGYH Tower
Feed Status: UP   Listeners: 0
Listen in your browser - HTML5 player (in browser, HTML5)
Click here to listen with your own player (launches your MP3 player)
Archive Access: KGYH Tower
FacilityFrequency
Donaldson Tower133.325

NOTICE

Unauthorized use prohibited. See LiveATC.net Terms of Service


Airport/ARTCC Code
Frequency Search
(e.g., 124.400, 128.75)
Site-wide search
 


Browse Feeds
Top 50 Feeds
Coverage Map
Bad Weather Areas

LiveATC FAQ
Offer LiveATC feed
Contact LiveATC.net
Press Inquiries

LiveATC on iPhone
LiveATC on Android

Windows Phone
Windows 8/10

LiveATC Mobile
(Mobile browser)

ATC Audio Archives
Interesting Recordings

LiveATC Forums


Home Page
About LiveATC.net
Make a Donation
Terms of Use
Privacy Policy

Canadian Air Freqs

AIRMETs/SIGMETs

FAA Airport Status
Nat'l Airspace Status
Arrival Demand Charts


Server Software By:
Icecast.org
Liquidsoap